Content
SEND FEEDBACK

Daily
Averages
Monthly
Summary
Australia

OOLBUN, QUEENSLAND


Home > Oceania > Australia > Queensland
Elevation: 190 feet     Latitude: 19 10S     Longitude: 147 01E

WEATHER
 
SELECT A DAY
Number of Records: 302,072;   Date Range: 7/1/96 - 12/18/14
 
SHARE

PRINT THIS DATA

[ ← Previous Day ]
WEATHER ALMANAC - JANUARY 31, 2013
[ Next Day → ]
[ °C ]   °F
Weather ElementAverageHighLow
Temperature86 °F91.4 °F (12:00 pm)80.6 °F (6:00 am)
Dewpoint76.9 °F79 °F (3:00 am)73.4 °F (12:00 pm)
Humidity73.3 %89 % (12:30 am)49 % (12:00 pm)
Barometer29.77 in29.83 in (10:00 am)29.71 in (4:00 pm)
Wind Speed9.7 mph16.1 mph (2:30 pm)
Weather ElementAverage
Visibility7.7 mi
Wind DirectionENE (75.4 °)

Weather ElementTotal
Precipitation---
Cooling Degree Days21 (Base 65)
Growing Degree Days36 (Base 50)
Averaged from 63 records on January 31, 2013
WEATHER CONDITIONS BREAKOUT
WIND DIRECTION BREAKOUT
WEATHER BY HOUR - JANUARY 31, 2013
[ °C ]   °F
Local TimeTemperatureDewpointHumidityBarometerVisibilityWind DirectionWind SpeedGust SpeedPrecipitationEventsConditions
12:00 AM84.2 °F78.8 °F84 %29.77 in6.2 miNNE (30°)5.8 mphMostly Cloudy
12:30 AM82.4 °F78.8 °F89 %29.77 in6.2 miNNE (30°)8.1 mph
1:00 AM83.0 °F78.0 °F80 %29.79 inNNE (20°)5.8 mph
1:00 AM82.4 °F78.8 °F89 %29.77 in6.2 miNNE (20°)5.8 mph
1:30 AM82.4 °F78.8 °F89 %29.74 in6.2 miNNE (30°)5.8 mph
2:00 AM82.4 °F77.0 °F84 %29.74 in6.2 miNorth (10°)5.8 mph
2:30 AM82.4 °F78.8 °F89 %29.74 in6.2 miNNW (340°)4.6 mph
3:00 AM82.4 °F78.8 °F89 %29.74 in6.2 miNNW (330°)4.6 mphScattered Clouds
3:00 AM82.0 °F79.0 °F87 %29.75 inNNW (330°)4.6 mph
3:30 AM82.4 °F77.0 °F84 %29.74 in6.2 miNorth (360°)5.8 mph
4:00 AM82.0 °F77.0 °F82 %29.77 inNorth5.8 mph
4:00 AM82.4 °F77.0 °F84 %29.74 in6.2 miNorth (360°)5.8 mph
4:30 AM82.4 °F77.0 °F84 %29.74 in6.2 miNorth (10°)4.6 mph
5:00 AM82.4 °F77.0 °F84 %29.77 in6.2 miNorth (10°)4.6 mph
5:30 AM82.4 °F77.0 °F84 %29.77 in6.2 miNorth (10°)5.8 mph
6:00 AM80.6 °F77.0 °F89 %29.77 in6.2 miNE (40°)4.6 mphScattered Clouds
6:00 AM81.0 °F78.0 °F87 %29.78 in16.0 miNE (40°)4.6 mphHaze
6:30 AM82.4 °F78.8 °F89 %29.77 in6.2 miNNE (20°)5.8 mphScattered Clouds
7:00 AM85.0 °F78.0 °F73 %29.81 inNE (50°)6.9 mph
7:00 AM84.2 °F77.0 °F79 %29.77 in6.2 miNE (50°)6.9 mphScattered Clouds
7:30 AM86.0 °F77.0 °F74 %29.80 in6.2 miNE (50°)8.1 mphScattered Clouds
8:00 AM86.0 °F77.0 °F74 %29.80 in6.2 miENE (60°)8.1 mphScattered Clouds
8:30 AM86.0 °F77.0 °F74 %29.80 in6.2 miENE (60°)8.1 mphScattered Clouds
9:00 AM87.8 °F77.0 °F70 %29.80 in6.2 miENE (60°)8.1 mphPartly Cloudy
9:00 AM88.0 °F77.0 °F63 %29.82 in16.0 miENE (60°)8.1 mphHaze
9:30 AM87.8 °F77.0 °F70 %29.80 in6.2 miENE (60°)9.2 mphScattered Clouds
10:00 AM89.0 °F78.0 °F62 %29.83 inEast (80°)11.5 mph
10:00 AM89.6 °F77.0 °F66 %29.80 in6.2 miEast (80°)11.5 mphPartly Cloudy
10:30 AM89.6 °F77.0 °F66 %29.80 in6.2 miENE (60°)10.4 mphPartly Cloudy
11:00 AM89.6 °F77.0 °F66 %29.80 in6.2 miENE (60°)11.5 mphPartly Cloudy
11:30 AM89.6 °F75.2 °F62 %29.80 in6.2 miENE (70°)10.4 mphPartly Cloudy
12:00 PM91.4 °F73.4 °F55 %29.80 in6.2 miNE (40°)12.7 mphPartly Cloudy
12:00 PM91.0 °F74.0 °F49 %29.81 in22.0 miNE (40°)12.7 mphPartly Cloudy
12:30 PM91.4 °F77.0 °F63 %29.77 in6.2 miENE (70°)15.0 mphPartly Cloudy
1:00 PM90.0 °F76.0 °F56 %29.80 inENE (60°)15.0 mph
1:00 PM89.6 °F77.0 °F66 %29.77 in6.2 miENE (60°)15.0 mphPartly Cloudy
1:30 PM89.6 °F77.0 °F66 %29.77 in6.2 miENE (70°)15.0 mphPartly Cloudy
2:00 PM91.4 °F78.8 °F66 %29.74 in6.2 miENE (70°)15.0 mphPartly Cloudy
2:30 PM89.6 °F77.0 °F66 %29.74 in6.2 miENE (60°)16.1 mphPartly Cloudy
3:00 PM89.6 °F77.0 °F66 %29.74 in6.2 miENE (70°)16.1 mphPartly Cloudy
3:00 PM90.0 °F77.0 °F58 %29.75 in19.0 miENE (70°)16.1 mphPartly Cloudy
3:30 PM89.6 °F77.0 °F66 %29.74 in6.2 miENE (70°)13.8 mphPartly Cloudy
4:00 PM90.0 °F77.0 °F57 %29.74 inENE (70°)15.0 mph
4:00 PM89.6 °F77.0 °F66 %29.71 in6.2 miENE (70°)15.0 mphPartly Cloudy
4:30 PM89.6 °F77.0 °F66 %29.71 in6.2 miENE (60°)12.7 mphPartly Cloudy
5:00 PM87.8 °F77.0 °F70 %29.71 in6.2 miNE (50°)10.4 mphPartly Cloudy
5:30 PM87.8 °F77.0 °F70 %29.71 in6.2 miENE (70°)10.4 mphPartly Cloudy
6:00 PM87.8 °F75.2 °F66 %29.71 in6.2 miNE (50°)9.2 mphScattered Clouds
6:00 PM88.0 °F76.0 °F59 %29.73 in25.0 miNE (50°)9.2 mphPartly Cloudy
6:30 PM86.0 °F75.2 °F70 %29.74 in6.2 miNNE (20°)5.8 mphScattered Clouds
7:00 PM85.0 °F77.0 °F72 %29.76 inENE (70°)10.4 mph
7:00 PM86.0 °F77.0 °F74 %29.74 in6.2 miENE (70°)10.4 mphScattered Clouds
7:30 PM84.2 °F77.0 °F79 %29.74 in6.2 miENE (60°)9.2 mphScattered Clouds
8:00 PM84.2 °F77.0 °F79 %29.77 in6.2 miNE (50°)11.5 mphScattered Clouds
8:30 PM84.2 °F77.0 °F79 %29.77 in6.2 miENE (60°)10.4 mphScattered Clouds
9:00 PM84.2 °F77.0 °F79 %29.80 in6.2 miENE (60°)11.5 mphScattered Clouds
9:00 PM84.0 °F76.0 °F72 %29.80 in22.0 miENE (60°)11.5 mphPartly Cloudy
9:30 PM84.2 °F75.2 °F74 %29.80 in6.2 miENE (60°)12.7 mphScattered Clouds
10:00 PM85.0 °F74.0 °F62 %29.83 inENE (70°)10.4 mph
10:00 PM84.2 °F73.4 °F70 %29.80 in6.2 miENE (70°)10.4 mphScattered Clouds
10:30 PM84.2 °F75.2 °F74 %29.80 in6.2 miENE (60°)11.5 mphScattered Clouds
11:00 PM84.2 °F77.0 °F79 %29.80 in6.2 miENE (70°)12.7 mphScattered Clouds
11:30 PM84.2 °F77.0 °F79 %29.80 in6.2 miEast (80°)12.7 mphScattered Clouds
Hourly data recorded from YBTL, located miles away from Oolbun, Queensland







STORIES FROM OUR PARTNERS